Regional Weather Roundup
Issued by NWS

Home | Current Version | Previous Version | Text Only | Print | Product List | Glossary On
Versions: 1 2 3 4 5 6 7 8 9 10 11 12 13 14 15 16 17 18 19 20 21 22 23 24 25 26 27 28 29 30 31 32 33 34 35 36 37 38 39 40 41 42 43 44 45 46 47 48 49 50
000
ASHW40 PHFO 180910
RWRHI

WEATHER ROUNDUP FOR HAWAII
NATIONAL WEATHER SERVICE HONOLULU HI
1100 PM HST THU APR 17 2014

THIS IS AN AUTOMATED REPORT THAT HAS NOT BEEN QUALITY CONTROLLED.

NOTE..."FAIR" INDICATES FEW OR NO CLOUDS BELOW 12,000 FEET WITH NO
SIGNIFICANT WEATHER AND/OR OBSTRUCTIONS TO VISIBILITY.

* - THESE SITES REPORT LIMITED FIELDS

HIZ001>004-181000-
KAUAI-NIIHAU-

CITY           SKY/WX    TMP DP  RH WIND       PRES   REMARKS
LIHUE APT      CLOUDY    74  69  85 NE17      30.17S
PORT ALLEN*      N/A     73 N/A N/A NE7         N/A
POIPU*           N/A     73 N/A N/A NE8G21      N/A
PRINCEVILLE*   NOT AVBL
KOKOLE POINT*  NOT AVBL
MOLOAA DAIRY*  NOT AVBL
WAIMEA HTS*    NOT AVBL
PUU OPAE*      NOT AVBL
PUU LUA*       NOT AVBL
MAKAHA RIDGE*  NOT AVBL
$$

HIZ005>011-181000-
OAHU-

CITY           SKY/WX    TMP DP  RH WIND       PRES   REMARKS
HONOLULU       CLOUDY    74  68  81 E8        30.13S
KALAELOA       CLOUDY    73  67  81 VRB3      30.14S
KANEOHE MCB    CLOUDY    73  66  77 E6        30.14S
WHEELER FIELD  FAIR      70  67  92 VRB5      30.15S
BELLOWS*       NOT AVBL
KAHUKU*        NOT AVBL
WHEELER*       NOT AVBL
WAIANAE HARBOR NOT AVBL
DILLINGHAM*    NOT AVBL
KAHUKU TRN*      N/A     70  70 100 NE9G21      N/A
KAWAILOA*      NOT AVBL
KII*             N/A     73  70  88 NE16G23     N/A
MAKUA RANGE*     N/A     72  70  94 E13G23      N/A
OAHU FOREST NW NOT AVBL
SCHOFIELD BRK*   N/A     68  66  94 MISG        N/A
SCHOFIELD S*     N/A     66 N/A N/A CALM        N/A
WAIANAE VLY*   NOT AVBL
KUAOKALA*      NOT AVBL
HONOULIUULI*   NOT AVBL
MOKUOLOE IS*     N/A    N/A N/A N/A MISG        N/A
PALEHUA*       NOT AVBL
WAIAWA PHB*    NOT AVBL
$$

HIZ012>013-181000-
MOLOKAI-

CITY           SKY/WX    TMP DP  RH WIND       PRES   REMARKS
MOLOKAI AIRPT  CLOUDY    72  71  97 N13G23    30.13S
KALAUPAPA      NOT AVBL
MAKAPULAPAI*   NOT AVBL
MOLOKAI 1*     NOT AVBL
PUU ALII*      NOT AVBL
$$

HIZ016-181000-
KAHOOLAWE-

CITY           SKY/WX    TMP DP  RH WIND       PRES   REMARKS
KAHOOLAWE*     NOT AVBL
HAKIOAWA*      NOT AVBL
HONOKANAIA*      N/A     75  65  70 N9G21     30.12S
KANELOA*       NOT AVBL
KEALIALALO*    NOT AVBL
LUA MAKIKA*    NOT AVBL
$$

HIZ014>015-181000-
LANAI-

CITY           SKY/WX    TMP DP  RH WIND       PRES   REMARKS
LANAI CITY     MOCLDY    70  68  93 NE15      30.16S
LANAI 1*       NOT AVBL
$$

HIZ017>028-181000-
MAUI-

CITY           SKY/WX    TMP DP  RH WIND       PRES   REMARKS
KAHULUI        LGT RAIN  74  69  85 NE12      30.12S
KAPALUA-W MAUI NOT AVBL
HANA AIRPORT   NOT AVBL
HANA*          NOT AVBL
HALEAKALA SUMM   N/A     43  30  61 E31         N/A
MAALAEA BAY*   NOT AVBL
HALEAKALA*     NOT AVBL
KAUPO GAP*     NOT AVBL
KULA 1*          N/A     46  45  93 E3          N/A
$$

HIZ023>026-181000-
BIG ISLAND OF HAWAII COAST AND LOWER SLOPES-

CITY           SKY/WX    TMP DP  RH WIND       PRES   REMARKS
KAILUA KONA    CLOUDY    77  61  57 CALM      30.06F
HILO           MOCLDY    72  69  90 W6        30.12S
HONOKAA*       NOT AVBL
KAWAIHAE MWT*  NOT AVBL
KAWAIHAE*        N/A     77 N/A N/A NW2         N/A
SOUTH POINT*   NOT AVBL
UPOLU AIRPORT* NOT AVBL
KAMUELA*       SUNNY     63  59  88 VRB13     30.18S
HAKALAU*         N/A     48  43  81 SW7         N/A
KALOKO-HONOKO* NOT AVBL
PALI 2*          N/A     64  57  77 NE10G17     N/A
KEALAKOMO*       N/A     73  64  73 N9G18       N/A
KAUPULEHU*     NOT AVBL
KAPAPALA*        N/A     62  58  87 N3          N/A
LOWER KAHUKU*  NOT AVBL
PUHE CS*       NOT AVBL
PUHO CS*       NOT AVBL
PTA KEAMUKU*     N/A     61  57  88 E3G9        N/A
WAIKOLOA*      NOT AVBL
$$

HIZ027>028-181000-
BIG ISLAND OF HAWAII INTERIOR AND SUMMMITS-

CITY           SKY/WX    TMP DP  RH WIND       PRES   REMARKS
BRADSHAW FIELD CLOUDY    55  39  56 SE17G28   30.38F
MK VISITOR CEN NOT AVBL
MAUNA KEA*       N/A     37 -31   4 E36         N/A  WCI  24
MAUNA LOA*       N/A     46 -36   2 MISG        N/A
MAUNA LOA 1*   NOT AVBL
PTA KIPUKA*      N/A     52  50  93 SE3         N/A
PTA RANGE 17*    N/A     72  61  68 E12G20      N/A
PTA WEST*        N/A     63  52  67 S13G24      N/A
NENE CABIN*    NOT AVBL
AHUMOA*        NOT AVBL
PTA PORTABLE*  NOT AVBL
PUU MALI*      NOT AVBL
$$

HIC003-181000-
NORTHWEST ISLANDS-

CITY           SKY/WX    TMP DP  RH WIND       PRES   REMARKS
MIDWAY ISLAND  CLOUDY    66  66 100 E10       30.25R
MIDWAY NOS*    NOT AVBL
FRENCH FRIGATE NOT AVBL
$$

PHZ110>124-180-181000-
BUOY REPORTS

STATION/POSITION TIME  TEMP    WIND        PRES    WAVE   SWELL
                       AIR SEA DIR/SP/G            HT/PER HT/DIR
                 (UTC) (F)     (DEG/KT/KT) (MB)    (FT/S) (FT/D)
BUOY 51001       NOT AVBL
BUOY 51101       0900   72 74   70/ 12/ 16 1022.9R   6/10   5/130
BUOY 51100       0900   73 74   80/ 16/ 19 1022.2R
BUOY 51003       0800   77 78   60/ 12/ 16 1018.8R   6/ 7   5
BUOY 51004       0900   78 77   80/ 17/ 21 1015.6F   8/ 9   5
BARBERS PT BUOY  NOT AVBL
WAIMEA BAY BUOY  0900      75                N/A     6/13   3/340
KAILUA BAY BUOY  0900      76                N/A     6/ 9   2/ 60
LANAI BUOY       0900      78                N/A     3/13   2/250
BARBERS PT 2     0900      76                N/A     4/13   3/310
PAUWELA MAUI     NOT AVBL
HILO             0900      78                N/A     7/ 9   3/340
KANEOHE BAY BUOY 0900      75                N/A     5/ 8
HANALEI KAUAI    0900      77                N/A     6/13   3/320
KAHULUI HARBOR   0900   75 76   50/ 13/ 19 1019.5R
HONOLULU HARBOR  0900   75      40/  4/  6 1020.2F
KILO NALU        NOT AVBL
HILO HARBOR      0900   74 76   CALM  /  3 1019.3S
MOKUOLOE         0900   74 76   70/  9/ 12 1020.7F
NAWILIWILI       0900      77                N/A
WHOTS BUOY       NOT AVBL
BUOY 51028       NOT AVBL
$$

......................KEY........................................
  SKY/WX - SKY CONDITIONS/PRESENT WEATHER
  TMP    - TEMPERATURE IN FAHRENHEIT
  DWPT   - DEWPOINT IN FAHRENHEIT
  RH     - RELATIVE HUMIDITY IN PERCENT
  WIND   - DIRECTION AND SPEED /MPH FOR ISLANDS...KTS FOR BUOYS/
  PRES   - MEAN SEA LEVEL PRESSURE IN INCHES OF HG
  VSB    - VISIBILITY IN MILES
  HX     - HEAT INDEX
  WCI    - WIND CHILL INDEX
  VRB    - VARIABLE WIND DIRECTION
  N/A    - NOT AVAILABLE



USA.gov is the U.S. government's official web portal to all federal, state and local government web resources and services.